Air Resources Laboratory banner image
Air Resources Laboratory web site National Oceanic and Atmospheric Administration (NOAA)

nd roundup


Office: BIS

ASUS43 KBIS 231202
RWRBIS

NWR BROADCAST TEXT
NATIONAL WEATHER SERVICE BISMARCK ND
700 AM CDT SUN SEP 23 2018

NOTE: "FAIR" INDICATES FEW OR NO CLOUDS BELOW 12,000 FEET WITH NO
SIGNIFICANT WEATHER AND/OR OBSTRUCTIONS TO VISIBILITY.


CITY           SKY/WX    TMP DP  RH WIND       PRES   REMARKS
WILLISTON      CLOUDY    38  35  89 E10       30.02F
MINOT          CLOUDY    37  35  92 NE12      30.06F
MINOT AFB      CLOUDY    37  34  90 E12       30.05F
BISMARCK       CLOUDY    42  41  96 NE15      29.99F FOG
DICKINSON      FOG       38  38 100 E15       29.93F VSB 1/2
GARRISON         N/A     38  38 100 E9G18     30.02F
HETTINGER ARPT LGT RAIN  41  41 100 NE12      29.92F VSB 1/2
JAMESTOWN      CLOUDY    41  40  96 NE10      30.02R
CARRINGTON     CLOUDY    41  37  87 NE13G20   30.05S
HAZEN          CLOUDY    39  39 100 E12G18    30.02F
LINTON           N/A    N/A N/A N/A NE12      29.98F FOG
MANDAN         CLOUDY   N/A N/A N/A NE18      29.98F FOG
OAKES          CLOUDY    43  43 100 NE12      29.97S
RUGBY          CLOUDY    36  36 100 NE15G23   30.07F
STANLEY          N/A     36  36 100 E9        30.05S FOG
TIOGA          CLOUDY    34  34 100 E13       30.05F FOG
WATFORD CITY   CLOUDY    37  37 100 E13       30.00F FOG
$$

CITY           SKY/WX    TMP DP  RH WIND       PRES   REMARKS
GRAND FORKS    CLOUDY    43  40  89 NE15      30.08R
GRAND FORKS AF CLOUDY    42  38  86 NE9       30.08S
DEVILS LAKE    CLOUDY    36  36 100 NE15      30.08F
FARGO          FAIR      45  44  97 NE9       29.98R
CANDO          CLOUDY    36  36 100 NE10      30.11S
CAVALIER       CLOUDY    37 N/A N/A NE9       30.13F
GRAFTON        CLOUDY    41  39  93 NE12      30.13R
GWINNER          N/A     43  43 100 N8        29.97S
LANGDON        FOG       36  36 100 NE16      30.10S VSB 3/4
ROLLA          MIX PCPN  34  34 100 NE15      30.11F
WALHALLA       FAIR      36  36 100 N10       30.15S
$$

CITY           SKY/WX    TMP DP  RH WIND       PRES   REMARKS
ABERDEEN       FOG       45  45 100 NE10      29.94R VSB 1/2
MOBRIDGE       CLOUDY    47  46  97 NE13      29.89F FOG
BUFFALO          N/A     46  50 100 NE21      29.84R
RAPID CITY     CLEAR     49  39  68 N13       29.83R
GLASGOW        CLOUDY    40  38  93 E15       29.95F FOG
SIDNEY         CLOUDY    39  37  92 E13       30.00F
WOLF POINT     CLOUDY    40  39  97 E13       30.00F
GLENDIVE       LGT RAIN  40  40 100 NE17      29.96R VSB 1/4
MILES CITY     CLOUDY    44  44 100 NE15      29.92R FOG
BAKER          FOG       41  41 100 E17       29.91S VSB 1/2
$$

CITY           SKY/WX    TMP DP  RH WIND       PRES   REMARKS
BILLINGS       PTCLDY    45  44  97 W9        29.94R
GREAT FALLS    CLOUDY    43  43 100 NW3       29.94R
$$



ASUS43 KBIS 231202
RWRND

NORTH DAKOTA REGIONAL WEATHER ROUNDUP
NATIONAL WEATHER SERVICE BISMARCK ND
700 AM CDT SUN SEP 23 2018

NOTE: "FAIR" INDICATES FEW OR NO CLOUDS BELOW 12,000 FEET WITH NO
SIGNIFICANT WEATHER AND/OR OBSTRUCTIONS TO VISIBILITY.


NDZ001>003-009>011-017-231300-
NORTHWEST NORTH DAKOTA

CITY           SKY/WX    TMP DP  RH WIND       PRES   REMARKS
WILLISTON      CLOUDY    38  35  89 E10       30.02F
6HR MIN TEMP:  38; 6HR MAX TEMP:  39;

MINOT          CLOUDY    37  35  92 NE12      30.06F
MINOT AFB      CLOUDY    37  34  90 E12       30.05F
$$

NDZ018>021-031>035-040>046-231300-
SOUTHWEST NORTH DAKOTA

CITY           SKY/WX    TMP DP  RH WIND       PRES   REMARKS
BISMARCK       CLOUDY    42  41  96 NE15      29.99F FOG
6HR MIN TEMP:  42; 6HR MAX TEMP:  44;

DICKINSON      FOG       38  38 100 E15       29.93F VSB 1/2
GARRISON         N/A     38  38 100 E9G18     30.02F
6HR MIN TEMP:  37; 6HR MAX TEMP:  38;

HETTINGER ARPT LGT RAIN  41  41 100 NE12      29.92F VSB 1/2
$$

NDZ004>008-012>016-024-026-027-054-231300-
NORTHEAST NORTH DAKOTA

CITY           SKY/WX    TMP DP  RH WIND       PRES   REMARKS
GRAND FORKS    CLOUDY    43  40  89 NE15      30.08R
GRND FRKS AFB  CLOUDY    42  38  86 NE9       30.08S
DEVILS LAKE    CLOUDY    36  36 100 NE15      30.08F
$$

NDZ022-023-025-028>030-036>039-047>053-231300-
SOUTHEAST NORTH DAKOTA

CITY           SKY/WX    TMP DP  RH WIND       PRES   REMARKS
FARGO          FAIR      45  44  97 NE9       29.98R
6HR MIN TEMP:  45; 6HR MAX TEMP:  47;

JAMESTOWN      CLOUDY    41  40  96 NE10      30.02R
$$



ASUS43 KBIS 231210
RWRBIS

NWR BROADCAST TEXT
NATIONAL WEATHER SERVICE BISMARCK ND
700 AM CDT SUN SEP 23 2018

NOTE: "FAIR" INDICATES FEW OR NO CLOUDS BELOW 12,000 FEET WITH NO
SIGNIFICANT WEATHER AND/OR OBSTRUCTIONS TO VISIBILITY.


CITY           SKY/WX    TMP DP  RH WIND       PRES   REMARKS
WILLISTON      CLOUDY    38  35  89 E10       30.02F
MINOT          CLOUDY    37  35  92 NE12      30.06F
MINOT AFB      CLOUDY    37  34  90 E12       30.05F
BISMARCK       CLOUDY    42  41  96 NE15      29.99F FOG
DICKINSON      FOG       38  38 100 E15       29.93F VSB 1/2
GARRISON         N/A     38  38 100 E9G18     30.02F
HETTINGER ARPT LGT RAIN  41  41 100 NE12      29.92F VSB 1/2
JAMESTOWN      CLOUDY    41  40  96 NE10      30.02R
CARRINGTON     CLOUDY    41  37  87 NE13G20   30.05S
HAZEN          CLOUDY    39  39 100 E12G18    30.02F
LINTON           N/A    N/A N/A N/A NE12      29.98F FOG
MANDAN         CLOUDY   N/A N/A N/A NE18      29.98F FOG
OAKES          CLOUDY    43  43 100 NE12      29.97S
RUGBY          CLOUDY    36  36 100 NE15G23   30.07F
STANLEY          N/A     36  36 100 E9        30.05S FOG
TIOGA          CLOUDY    34  34 100 E13       30.05F FOG
WATFORD CITY   CLOUDY    37  37 100 E13       30.00F FOG
$$

CITY           SKY/WX    TMP DP  RH WIND       PRES   REMARKS
GRAND FORKS    CLOUDY    43  40  89 NE15      30.08R
GRAND FORKS AF CLOUDY    42  38  86 NE9       30.08S
DEVILS LAKE    CLOUDY    36  36 100 NE15      30.08F
FARGO          FAIR      45  44  97 NE9       29.98R
CANDO          CLOUDY    36  36 100 NE10      30.11S
CAVALIER       CLOUDY    37 N/A N/A N8G17     30.13F
GRAFTON        CLOUDY    41  39  93 NE12      30.13R
GWINNER          N/A     43  43 100 N8        29.97S
LANGDON        FOG       36  36 100 NE16      30.10S VSB 3/4
ROLLA          MIX PCPN  34  34 100 NE15      30.11F
WALHALLA       FAIR      36  36 100 N10       30.15S
$$

CITY           SKY/WX    TMP DP  RH WIND       PRES   REMARKS
ABERDEEN       FOG       45  45 100 NE10      29.94R VSB 1/2
MOBRIDGE       CLOUDY    47  46  97 NE13      29.89F FOG
BUFFALO          N/A     46  50 100 NE21      29.84R
RAPID CITY     CLEAR     49  39  68 N13       29.83R
GLASGOW        CLOUDY    40  38  93 E15       29.95F FOG
SIDNEY         CLOUDY    39  37  92 E13       30.00F
WOLF POINT     CLOUDY    40  39  97 E13       30.00F
GLENDIVE       LGT RAIN  40  40 100 NE17      29.96R VSB 1/4
MILES CITY     CLOUDY    44  44 100 NE14      29.92R FOG
BAKER          FOG       41  41 100 E17       29.91S VSB 1/2
$$

CITY           SKY/WX    TMP DP  RH WIND       PRES   REMARKS
BILLINGS       PTCLDY    45  44  97 W9        29.94R
GREAT FALLS    CLOUDY    43  43 100 NW3       29.94R
REGINA         CLOUDY    32  30  93 E15       30.09S FOG
ESTEVAN        LGT RAIN  34  32  93 E16G26    30.06F
$$



ASUS43 KBIS 231210
RWRND

NORTH DAKOTA REGIONAL WEATHER ROUNDUP
NATIONAL WEATHER SERVICE BISMARCK ND
700 AM CDT SUN SEP 23 2018

NOTE: "FAIR" INDICATES FEW OR NO CLOUDS BELOW 12,000 FEET WITH NO
SIGNIFICANT WEATHER AND/OR OBSTRUCTIONS TO VISIBILITY.


NDZ001>003-009>011-017-231300-
NORTHWEST NORTH DAKOTA

CITY           SKY/WX    TMP DP  RH WIND       PRES   REMARKS
WILLISTON      CLOUDY    38  35  89 E10       30.02F
6HR MIN TEMP:  38; 6HR MAX TEMP:  39;

MINOT          CLOUDY    37  35  92 NE12      30.06F
MINOT AFB      CLOUDY    37  34  90 E12       30.05F
$$

NDZ018>021-031>035-040>046-231300-
SOUTHWEST NORTH DAKOTA

CITY           SKY/WX    TMP DP  RH WIND       PRES   REMARKS
BISMARCK       CLOUDY    42  41  96 NE15      29.99F FOG
6HR MIN TEMP:  42; 6HR MAX TEMP:  44;

DICKINSON      FOG       38  38 100 E15       29.93F VSB 1/2
GARRISON         N/A     38  38 100 E9G18     30.02F
6HR MIN TEMP:  37; 6HR MAX TEMP:  38;

HETTINGER ARPT LGT RAIN  41  41 100 NE12      29.92F VSB 1/2
$$

NDZ004>008-012>016-024-026-027-054-231300-
NORTHEAST NORTH DAKOTA

CITY           SKY/WX    TMP DP  RH WIND       PRES   REMARKS
GRAND FORKS    CLOUDY    43  40  89 NE15      30.08R
GRND FRKS AFB  CLOUDY    42  38  86 NE9       30.08S
DEVILS LAKE    CLOUDY    36  36 100 NE15      30.08F
$$

NDZ022-023-025-028>030-036>039-047>053-231300-
SOUTHEAST NORTH DAKOTA

CITY           SKY/WX    TMP DP  RH WIND       PRES   REMARKS
FARGO          FAIR      45  44  97 NE9       29.98R
6HR MIN TEMP:  45; 6HR MAX TEMP:  47;

JAMESTOWN      CLOUDY    41  40  96 NE10      30.02R
$$



ASUS43 KBIS 231210
RWRND
NORTH DAKOTA REGIONAL WEATHER ROUNDUP
NATIONAL WEATHER SERVICE EASTERN NORTH DAKOTA/GRAND FORKS ND
700 AM CDT SUN SEP 23 2018

  NOTE: "FAIR" INDICATES FEW OR NO CLOUDS BELOW 12,000 FEET WITH NO
  SIGNIFICANT WEATHER AND/OR OBSTRUCTIONS TO VISIBILITY.

NDZ001>003-009>011-017-231300-
...NORTHWEST NORTH DAKOTA...

CITY           SKY/WX    TMP DP  RH WIND       PRES   REMARKS
WILLISTON      CLOUDY    38  35  89 E10       30.02F WCI  31
6HR MIN TEMP:  38; 6HR MAX TEMP:  39;

MINOT          CLOUDY    37  35  92 NE12      30.06F WCI  29
MINOT AFB      CLOUDY    37  34  90 E12       30.05F WCI  29
6HR MIN TEMP:  36; 6HR MAX TEMP:  37;

$$

NDZ018>021-031>035-040>046-231300-
...SOUTHWEST NORTH DAKOTA...

CITY           SKY/WX    TMP DP  RH WIND       PRES   REMARKS
BISMARCK       CLOUDY    42  41  96 NE15      29.99F FOG
DICKINSON      FOG       38  38 100 E15       29.93F VSB 1/2 WCI  29
GARRISON         N/A     38  38 100 E9G18     30.02F WCI  31
HETTINGER      LGT RAIN  41  41 100 NE12      29.92F VSB 1/2
$$

NDZ004>008-012>016-024-026-027-054-231300-
...NORTHEAST NORTH DAKOTA...

CITY           SKY/WX    TMP DP  RH WIND       PRES   REMARKS
GRAND FORKS    CLOUDY    43  40  89 NE15      30.08R
GRAND FORKS AF CLOUDY    42  38  86 NE9       30.08S
DEVILS LAKE    CLOUDY    36  36 100 NE15      30.08F WCI  27
$$

NDZ022-023-025-028>030-036>039-047>053-231300-
...SOUTHEAST NORTH DAKOTA...

CITY           SKY/WX    TMP DP  RH WIND       PRES   REMARKS
JAMESTOWN      CLOUDY    41  40  96 NE10      30.02R
FARGO          FAIR      45  44  97 NE9       29.98R
WAHPETON       FAIR      43  41  93 NE3       29.96R
$$




Office: FGF ASUS43 KFGF 231210 RWRFGF PRAIRIE TO PINES WEATHER ROUNDUP NATIONAL WEATHER SERVICE EASTERN NORTH DAKOTA/GRAND FORKS ND 700 AM CDT SUN SEP 23 2018 **SATELLITE DATA USED TO AUGMENT SKY COVER AT AUTOMATED STATIONS** ***** WEATHER ACROSS EASTERN NORTH DAKOTA ***** CITY SKY/WX TMP DP RH WIND PRES REMARKS GRAND FORKS CLOUDY 43 40 89 NE15 30.08R 6HR MIN TEMP: 42; 6HR MAX TEMP: 43; GRAND FRKS AFB CLOUDY 42 38 86 NE9 30.08S DEVILS LAKE CLOUDY 36 36 100 NE15 30.08F 6HR MIN TEMP: 36; 6HR MAX TEMP: 38; FARGO FAIR 45 44 97 NE9 29.98R WAHPETON ARPT FAIR 43 41 93 NE3 29.96R $$ ***** WEATHER ACROSS CENTRAL AND WESTERN NORTH DAKOTA ***** CITY SKY/WX TMP DP RH WIND PRES REMARKS BISMARCK CLOUDY 42 41 96 NE15 29.99F FOG 6HR MIN TEMP: 42; 6HR MAX TEMP: 44; MINOT CLOUDY 37 35 92 NE12 30.06F 6HR MIN TEMP: 37; 6HR MAX TEMP: 38; JAMESTOWN CLOUDY 41 40 96 NE10 30.02R 6HR MIN TEMP: 41; 6HR MAX TEMP: 44; MINOT AFB CLOUDY 37 34 90 E12 30.05F GARRISON N/A 38 38 100 E9G18 30.02F WILLISTON CLOUDY 38 35 89 E10 30.02F 6HR MIN TEMP: 38; 6HR MAX TEMP: 39; DICKINSON FOG 38 38 100 E15 29.93F VSB 1/2 6HR MIN TEMP: 38; 6HR MAX TEMP: 41; HETTINGER LGT RAIN 41 41 100 NE12 29.92F VSB 1/2 6HR MIN TEMP: 41; 6HR MAX TEMP: 48; 6HR PCP: TRACE; $$ ***** OTHER AIRPORT OBSERVATIONS IN OUR AREA ***** CITY SKY/WX TMP DP RH WIND PRES REMARKS WALHALLA FAIR 36 36 100 N10 30.15S GRAFTON AIRPOR CLOUDY 41 39 93 NE12 30.13R VALLEY CITY AR MIX PCPN 41 41 100 NE16 30.01S CANDO CLOUDY 36 36 100 NE10 30.11S CAVALIER APRT CLOUDY 37 N/A N/A N8G17 30.13F GWINNER N/A 43 43 100 N8 29.97S SHEYENNE NWR N/A 43 43 99 N6 29.95S ROLLA MIX PCPN 34 34 100 NE15 30.11F WCI 24 ***** THE ABOVE OBSERVATIONS ARE NON NWS ARE NOT QUALITY CONTROLLED AND MAY MIS-REPORT RAIN FOR SNOW... $$ ***** WEATHER ACROSS NORTHERN MINNESOTA ***** CITY SKY/WX TMP DP RH WIND PRES REMARKS FLAG ISLAND CLOUDY 37 34 87 E9G22 30.19R WARROAD CLOUDY 39 36 87 E23G29 30.15F ROSEAU CLOUDY 39 34 81 E17G25 30.15S HALLOCK CLOUDY 41 39 93 E12 30.12S THF RVR FALLS CLOUDY 40 38 93 E20G26 30.08S 6HR MIN TEMP: 40; 6HR MAX TEMP: 41; BAUDETTE CLOUDY 38 37 97 E13G18 30.16F FOG 6HR MIN TEMP: 37; 6HR MAX TEMP: 38; 6HR PCP: 0.02; WASKISH CLOUDY 39 37 93 E14G21 30.12R FOG CROOKSTON CLOUDY 43 39 87 E12G18 30.07R STEPHEN NDAWN N/A 39 37 93 E12 N/A GREENBUSH NDAW N/A 39 36 87 E12 N/A $$ ***** WEATHER ACROSS CENTRAL AND WEST MINNESOTA ***** CITY SKY/WX TMP DP RH WIND PRES REMARKS FOSSTON CLOUDY 41 37 87 E7 30.05S BEMIDJI CLOUDY 42 40 92 NE8 30.05S 6HR MIN TEMP: 42; 6HR MAX TEMP: 44; PARK RAPIDS FAIR 48 46 93 NE6 30.01R 6HR MIN TEMP: 48; 6HR MAX TEMP: 54; ELBOW LAKE FAIR 49 47 91 E7 29.95S 6HR MIN TEMP: 49; 6HR MAX TEMP: 53; WADENA FAIR 45 45 100 NE5 29.99S DETROIT LAKES FAIR 48 46 93 E7 30.00S MOORHEAD FAIR 46 45 93 N3 29.99R FERGUS FALLS FAIR 50 48 93 E7 29.98R MORRIS MN FAIR 48 48 100 CALM 29.94F STAPLES FAIR 46 45 93 E6 29.99F $$ ***** WEATHER ELSEWHERE ACROSS MINNESOTA ***** CITY SKY/WX TMP DP RH WIND PRES REMARKS DULUTH DRIZZLE 47 45 93 E20G28 30.13R FOG 6HR MIN TEMP: 46; 6HR MAX TEMP: 53; 6HR PCP: TRACE; INTRNTL FALLS LGT RAIN 38 37 97 E12 30.20R 6HR MIN TEMP: 38; 6HR MAX TEMP: 39; 6HR PCP: 0.02; ELY CLOUDY 37 37 100 NE10 30.17F FOG CLOQUET CLOUDY 46 45 93 E14G23 30.10R WHEATON FAIR 45 43 93 SW3 29.97R BRAINERD FAIR 49 46 90 VRB3 30.03S 6HR MIN TEMP: 47; 6HR MAX TEMP: 53; HIBBING CLOUDY 44 42 93 E10G23 30.11S 6HR MIN TEMP: 44; 6HR MAX TEMP: 47; ALEXANDRIA FAIR 50 45 83 SE8 29.98S 6HR MIN TEMP: 50; 6HR MAX TEMP: 55; SAINT CLOUD FAIR 50 47 89 SE6 30.01S 6HR MIN TEMP: 47; 6HR MAX TEMP: 50; MINNEAPOLIS FAIR 52 48 86 SE7 30.06R 6HR MIN TEMP: 51; 6HR MAX TEMP: 59; $$ ***** WEATHER ACROSS SOUTH DAKOTA ***** CITY SKY/WX TMP DP RH WIND PRES REMARKS SIOUX FALLS FAIR 54 49 83 SE7 29.96F 6HR MIN TEMP: 54; 6HR MAX TEMP: 58; BROOKINGS FAIR 50 47 89 SE10 29.95S WATERTOWN FAIR 50 48 93 SE10 29.91S 6HR MIN TEMP: 50; 6HR MAX TEMP: 54; HURON FAIR 51 48 89 SE9 29.89R 6HR MIN TEMP: 51; 6HR MAX TEMP: 58; SISSETON N/A 46 46 100 N7 29.95R ABERDEEN FOG 45 45 100 NE10 29.94R VSB 1/2 6HR MIN TEMP: 45; 6HR MAX TEMP: 54; MITCHELL FAIR 53 50 89 SE12 29.90F PIERRE FAIR 47 46 97 E9 29.81F 6HR MIN TEMP: 47; 6HR MAX TEMP: 56; MOBRIDGE CLOUDY 47 46 97 NE13 29.89F FOG RAPID CITY FAIR 49 39 68 N13 29.83R 6HR MIN TEMP: 46; 6HR MAX TEMP: 55; $$ ***** SOME WEATHER IN NEARBY STATES ***** CITY SKY/WX TMP DP RH WIND PRES REMARKS GLASGOW MT CLOUDY 40 38 93 E15 29.95F FOG 6HR MIN TEMP: 40; 6HR MAX TEMP: 43; GREAT FALLS MT CLOUDY 43 43 100 NW3 29.94R 6HR MIN TEMP: 43; 6HR MAX TEMP: 48; CHEYENNE WY CLOUDY 55 19 24 W13 30.10S 6HR MIN TEMP: 47; 6HR MAX TEMP: 55; SCOTTSBLUFF NE FAIR 42 38 85 N3 29.96R 6HR MIN TEMP: 42; 6HR MAX TEMP: 55; OMAHA NE FAIR 54 48 80 S9 30.06S 6HR MIN TEMP: 53; 6HR MAX TEMP: 55; DES MOINES IA FAIR 51 48 89 SE7 30.10R 6HR MIN TEMP: 51; 6HR MAX TEMP: 55; DAVENPORT IA FAIR 46 44 93 SE5 30.17R 6HR MIN TEMP: 45; 6HR MAX TEMP: 51; CHICAGO IL FAIR 51 46 83 CALM 30.18R 6HR MIN TEMP: 50; 6HR MAX TEMP: 54; EAU CLAIRE WI FAIR 44 44 100 CALM 30.10S 6HR MIN TEMP: 43; 6HR MAX TEMP: 55; LA CROSSE WI FAIR 51 48 89 SE6 30.12R 6HR MIN TEMP: 51; 6HR MAX TEMP: 56; $$ ***** SOME NATIONAL WEATHER ***** CITY SKY/WX TMP DP RH WIND PRES REMARKS LA GUARDIA NY LGT RAIN 62 50 64 N7 30.22S 6HR MIN TEMP: 62; 6HR MAX TEMP: 64; 6HR PCP: TRACE; RALEIGH NC CLOUDY 71 70 96 N3 30.12R FOG 6HR MIN TEMP: 68; 6HR MAX TEMP: 74; ATLANTA GA FAIR 70 65 84 SE3 30.07R 6HR MIN TEMP: 69; 6HR MAX TEMP: 74; NEW ORLEANS LA FAIR 77 75 93 CALM 29.94S 6HR MIN TEMP: 76; 6HR MAX TEMP: 80; OKLAHOMA CITY DRIZZLE 62 60 93 NE12 30.02R 6HR MIN TEMP: 62; 6HR MAX TEMP: 65; 6HR PCP: TRACE; ALBUQUERQUE NM FAIR 57 41 55 E6 30.20S 6HR MIN TEMP: 57; 6HR MAX TEMP: 66; SALT LAKE CITY FAIR 70 35 27 S12 29.95S 6HR MIN TEMP: 70; 6HR MAX TEMP: 73; LOS ANGELES CA FAIR ASUS63 KFGF 231225 RTPFGF Morning Temperature and Precipitation Summary National Weather Service Eastern North Dakota/Grand Forks ND 725 AM CDT Sun Sep 23 2018 Max/Min Temperature and Precipitation Table for Eastern North Dakota and Northwestern Minnesota (Morning-All Season) Values represent yesterdays* Highs ...Lows over the last 12 hours ...and Precipitation for the past 24 hours** ending at 12Z or 7am...6am CST * Midnight to Midnight Central Time ** 24-hr precip might not be reported between 1 Nov and 1 Mar. .BR FAR 0923 CS DH00/TX/DH06/TAIRZP/DH06/PPD/DH06/SF/DH06/SD : Morning RTP for Central Standard Time... :.................................................................. : Eastern North Dakota and Northwest Minnesota : Automated Weather Station reports :.................................................................. : Station Max / Min / 24-hr / Snow / Snow : Name Temp/ Temp / Precip / Fall / Depth :.................................................................. : Min/Max from between-hour ASOS reports GRFN8: Grand Forks NWS : 61 / 41 / 0.00 / M / M GFK : Grand Forks Airport: 61 / 42 / 0.00 / M / M RDR : Grand Forks AFB : 61 / M / 0.00 / / FAR : Fargo : 70 / 45 / 0.00 / M / M BDE : Baudette : 57 / 37 / 0.06 / / DVL : Devils Lake Airport: 54 / 36 / 0.00 / / PKD : Park Rapids : 65 / 48 / 0.00 / / TVF : Thief River Falls : 59 / 40 / T / / : Min/Max from hourly AWOS reports ADC : Wadena : 64 / 45 / 0.00 / / BJI : Bemidji : 63 / 43 / 0.00 / / DTL : Detroit Lakes : 64 / 48 / 0.00 / / FFM : Fergus Falls : 70 / 50 / 0.00 / / FGN : Flag Island : 52 / 34 / 0.16 / / FSE : Fosston : 66 / 41 / 0.00 / / HCO : Hallock : 55 / 39 / 0.00 / / ROX : Roseau : 55 / 39 / 0.05 / / RRT : Warroad : 54 / 39 / 0.04 / / VWU : Waskish : 57 / 37 / 0.00 / / Y63 : Elbow Lake : 67 / 49 / 0.00 / / : Eastern North Dakota and Northwest Minnesota : Temperature only AWOS or RAWS Reports AGRM5: Agassiz RAWS : 59 / 39 / / / 9D7 : Cando : 48 / 36 / / / 2C8 : Cavalier : 48 / 36 / / / S32 : Cooperstown : 66 / 41 / / / CKN : Crookston : 61 / 43 / / / GAF : Grafton : 54 / 39 / / / GWR : Gwinner : 72 / 43 / / / D55 : Langdon : 46 / 34 / / / JKJ : Moorhead : 70 / 46 / / / SNGN8: Sheyenne NWR : 73 / 43 / / / BAC : Valley City : 66 / 41 / / / BWP : Wahpeton : 72 / 43 / / / 96D : Walhalla : 50 / 36 / / / : : Temperatures that are based on hourly observations from : Automated Weather Stations may not capture the highs : or lows that occur between the tops of the hours .END These data are preliminary and have not undergone final quality control by the National Centers for Environmental Information (NCEI). Therefore, these data are subject to revision. Final and certified climate data can be accessed at www.ncei.noaa.gov. $$ weather.gov/fgf